Regional Weather Roundup
Issued by NWS Newport/Morehead, NC

Current Version | Previous Version | Text Only | Print | Product List | Glossary On
Versions: 1 2 3 4 5 6 7 8 9 10 11 12 13 14 15 16 17 18 19 20 21 22 23 24 25 26 27 28 29 30 31 32 33 34 35 36 37 38 39 40 41 42 43 44 45 46 47 48 49 50
000
ASUS42 KMHX 261513
RWRMHX
WEATHER ROUNDUP FOR EASTERN NORTH CAROLINA
NATIONAL WEATHER SERVICE NEWPORT/MOREHEAD CITY NC
1100 AM EDT FRI MAY 26 2017

NOTE: "FAIR" INDICATES FEW OR NO CLOUDS BELOW 12,000 FEET
WITH NO SIGNIFICANT WEATHER AND/OR OBSTRUCTIONS TO VISIBILITY

NCZ015>017-031-032-045>047-102-103-261600-
NORTH COAST

CITY           SKY/WX    TMP DP  RH WIND       PRES   REMARKS
EDENTON        SUNNY     77  58  52 W17G23    29.86S
ELIZABETH CITY SUNNY     75  59  57 W18G29    29.83S
KITTY HAWK     SUNNY     73  56  56 W15G24    29.83R
MANTEO         SUNNY     74  58  56 NW15G22   29.85S

$$

NCZ045>047-081-094-103-104-261600-
CENTRAL COAST

CITY           SKY/WX    TMP DP  RH WIND       PRES   REMARKS
FRISCO         SUNNY     77  59  53 W10G23    29.88S

$$

NCZ095-097-098-100-101-261600-
SOUTHERN COAST

CITY           SKY/WX    TMP DP  RH WIND       PRES   REMARKS
BEAUFORT       SUNNY     78  57  48 W20       29.91S
CEDAR ISLAND   NOT AVBL
JACKSONVILLE   SUNNY     77  58  51 W13       29.92S
PINEY ISLAND   SUNNY    N/A N/A N/A W17G29    29.90R
WILMINGTON     SUNNY     77  56  48 W14       29.94F


$$

NCZ011>013-027>030-043-044-078>080-089-090>093-098-261600-
COASTAL PLAIN

CITY           SKY/WX    TMP DP  RH WIND       PRES   REMARKS
AHOSKIE          N/A     72  56  56 W7        29.86S
CLINTON        SUNNY     76  58  53 W6G17     29.94F
ELIZABETHTOWN  SUNNY     78  55  45 W10G16    29.96S
GOLDSBORO      SUNNY     76  55  49 W14       29.90F
GREENVILLE     SUNNY     77  54  44 W14G23    29.92R
HAVELOCK       SUNNY     78  55  44 W14G25    29.91F
KENANSVILLE    SUNNY     77  57  50 W15G21    29.93S
KINSTON        SUNNY     75  54  46 W14G23    29.93R
NEW BERN       SUNNY     78  58  49 W12G22    29.92S
RICHLANDS      SUNNY     78  58  49 W9G16     29.93F
ROCKY MOUNT    SUNNY     74  55  51 W12G18    29.90S
WASHINGTON     SUNNY     76  56  50 W13G22    29.89S
WHITEVILLE     SUNNY     75  56  51 W7        29.96S

$$

AMZ130-135-150-152-154-156-158-170-250-252-270-ANZ085-086-088-633-658-670-261600-
MARINE OBSERVATIONS

STATION/POSITION TIME  TEMP    WIND        PRES    WAVE   SWELL
                       AIR SEA DIR/SP/G            HT/PER HT/PER
                 (UTC) (F)     (DEG/KT/KT) (MB)    (FT/S) (FT/S)
CHESAPEAKE LIGHT NOT AVBL
64 E VA BEACH    1450   64 61  260/ 16/ 17 1009.3    6/ 7   5/ 7
DUCK             1448   71 62  270/ 21/ 26 1009.7
2 E DUCK         1500      62                N/A     2/ 8
OREGON INLET     1442   73 70  260/ 12/ 16 1010.4
13E OREGON INLT  1448      65                N/A     4/ 9   3/ 9
HATTERAS CG      1448   72 71  260/ 19/ 22 1011.5
DIAMOND BUOY     1450   72 79  270/ 19/ 23 1011.5    7/ 8   3/ 8
CAPE LOOKOUT     1500   74     260/ 14/ 17 1012.6
BEAUFORT LAB     1448   76 70  310/  8/ 18 1012.1
30 SE NEW RVR IN 1408   72 78  280/ 16/ 19 1014.1
30 SE NEW RVR IN 1443      78                N/A     6/ 8
27 SE WRIGHTSVLE 1408   71 75  250/ 14/ 17 1013.8
5 SE WRIGHTSVLE  1408   71 74  270/  8/ 14 1014.0
225 S CAPE HAT   1450   76 77  290/ 14/ 16 1016.0    7/ 8   7/ 8
41 SE CHARLESTON 1450   72 74  270/ 10/ 12 1016.0    3/ 5   2/ 5

$$




USA.gov is the U.S. government's official web portal to all federal, state and local government web resources and services.